RESURS-DK 1 (29228 NORAD) Tracking and Keplerian Element Data

This shows tracking and keplerian element data for the satellite.

Feedback or suggestion? Click here.




ElementValue
Catalog29228
NameRESURS-DK 1
Epoch Orbit66816
Epoch Day203.15225606
Epoch Year2018
RAAN160.3263
Inclination69.9353
Eccentricity0.0001566
Argument of Perigee85.2809
Mean Anonmoly274.8531
Mean Motion15.02339383
Decay Rate6.3E-07
L11 29228U 06021A 18203.15225606 .00000063 00000-0 12069-4 0 9994
L22 29228 69.9353 160.3263 0001566 85.2809 274.8531 15.02339383668165

Live tracking and technical data element details for RESURS-DK 1 (NORAD 29228). RESURS-DK 1 can be tracked NOW for your location showing map with azimuth and elevation plus other details from your city location.

Track the satellite on the map from your city or location and see movement details for azimuth, elevation, latitude, longitude, range, height, and movement on the map or in text.







IsCatalogInMostPopularTable: catalog: 29228, numindb: 49
Update: records affected: 1



GetName: 29228 RESURS-DK 1

Hit Count: updated at: Mon, 23 Jul 2018 07:52:17 GMT